Krisjanis Valdemars — V7LI9 — position and weather

sailwx.info

Track history (hours):
 
Tides and Currents Weather Stations Pressure Air Temp Water Temp Dewpoint Dewpoint Depression Visibility Wind Speed Wind Dir Waves Ship Positions

Krisjanis Valdemars

Last reported at 2014-Oct-23 10:33 UTC. Time now 2014-Oct-24 07:50 UTC.
Position N 40°43' E 029°29'.

Length 183 m; draft 6.6 m.

Type: Tanker. MMSI: 538002757.

Date/timePositionNaut miles runAvg speedWind from/ knotsBaromVisibWave heightAir tempDewpointWater temp
2014-Oct-23 10:33N 40°43' E 029°29'5 5.3
2014-Oct-23 09:33N 40°44' E 029°22'3 2.8
2014-Oct-23 08:30N 40°41' E 029°20'0 0.0
2014-Oct-23 07:24N 40°41' E 029°20'0 0.0
2014-Oct-23 06:30N 40°41' E 029°20'0 0.1
2014-Oct-23 05:30N 40°41' E 029°20'0 0.1
2014-Oct-23 04:30N 40°41' E 029°20'0 0.0
2014-Oct-23 03:12N 40°41' E 029°20'0 0.1
2014-Oct-23 02:30N 40°41' E 029°20'0 0.1
2014-Oct-23 01:24N 40°41' E 029°20'0 0.0
2014-Oct-23 00:18N 40°41' E 029°20'0 0.0
2014-Oct-22 23:30N 40°41' E 029°20'0 0.0
2014-Oct-22 22:18N 40°41' E 029°20'0 0.1
2014-Oct-22 21:30N 40°41' E 029°20'0 0.1
2014-Oct-22 20:30N 40°41' E 029°20'0 0.1
2014-Oct-22 19:30N 40°41' E 029°20'0 0.0
2014-Oct-22 18:30N 40°41' E 029°20'0 0.0
2014-Oct-22 15:24N 40°41' E 029°20'0 0.0
2014-Oct-22 14:18N 40°41' E 029°20'0 0.0
2014-Oct-22 13:30N 40°41' E 029°20'0 0.0
2014-Oct-22 12:30N 40°41' E 029°20'0 0.0
2014-Oct-22 11:24N 40°41' E 029°20'0 0.0
2014-Oct-22 10:30N 40°41' E 029°20'0 0.0
2014-Oct-22 09:29N 40°41' E 029°20'0 0.0
2014-Oct-22 07:30N 40°41' E 029°20'0 0.1
2014-Oct-22 06:27N 40°41' E 029°20'6 6.3
2014-Oct-22 05:33N 40°44' E 029°13'1413.6
2014-Oct-22 04:33N 40°49' E 028°57'1313.4
2014-Oct-22 03:33N 40°49' E 028°39'1514.0
2014-Oct-22 02:29N 40°47' E 028°19'9213.3
2014-Oct-21 19:32N 40°13' E 026°27'2310.4
2014-Oct-21 17:19N 39°59' E 026°03'1012.5
2014-Oct-21 16:32N 39°53' E 025°53'7 6.8
2014-Oct-21 15:33N 39°48' E 025°59'0 0.0
2014-Oct-21 14:33N 39°48' E 025°59'0 0.1
2014-Oct-21 13:33N 39°48' E 025°59'0 0.0
2014-Oct-21 12:33N 39°48' E 025°59'0 0.0
2014-Oct-21 11:33N 39°48' E 025°59'0 0.0
2014-Oct-21 10:33N 39°48' E 025°59'0 0.1
2014-Oct-21 09:33N 39°48' E 025°59'0 0.1
2014-Oct-21 08:33N 39°48' E 025°58'0 0.1
2014-Oct-21 07:30N 39°48' E 025°58'0 0.0
2014-Oct-21 06:33N 39°48' E 025°58'0 0.0
2014-Oct-21 05:33N 39°48' E 025°58'0 0.0
2014-Oct-21 04:30N 39°48' E 025°58'0 0.1
2014-Oct-21 03:18N 39°48' E 025°59'0 0.0
2014-Oct-21 02:30N 39°48' E 025°59'0 0.0
2014-Oct-21 01:33N 39°48' E 025°59'0 0.0
2014-Oct-21 00:24N 39°48' E 025°59'0 0.0
2014-Oct-20 23:12N 39°48' E 025°59'0 0.0
2014-Oct-20 19:24N 39°48' E 025°59'66 5.4
2014-Oct-20 07:14N 38°46' E 025°29'912.3
2014-Oct-20 06:31N 38°37' E 025°26'6712.8
2014-Oct-20 01:16N 37°33' E 025°49'912.3
2014-Oct-20 00:33N 37°25' E 025°54'1513.8
2014-Oct-19 23:26N 37°17' E 026°10'1413.4
2014-Oct-19 22:22N 37°10' E 026°26'3911.8
2014-Oct-19 19:06N 36°35' E 026°47'2211.8
2014-Oct-19 17:16N 36°16' E 026°60'27513.1
2014-Oct-18 20:12N 34°31' E 032°11'1113.1
2014-Oct-18 19:21N 34°27' E 032°24'1013.1
2014-Oct-18 18:33N 34°24' E 032°36'1313.0
2014-Oct-18 17:33N 34°20' E 032°51'1312.8
2014-Oct-18 16:32N 34°16' E 033°06'1612.3
2014-Oct-18 15:17N 34°11' E 033°24'1012.3
2014-Oct-18 14:30N 34°07' E 033°34'  
Track history (hours):
 
Tides and Currents Weather Stations Pressure Air Temp Water Temp Dewpoint Dewpoint Depression Visibility Wind Speed Wind Dir Waves Ship Positions

Krisjanis Valdemars

Last reported at 2014-Oct-23 10:33 UTC. Time now 2014-Oct-24 07:50 UTC.
Position N 40°43' E 029°29'.

Length 183 m; draft 6.6 m.

Type: Tanker. MMSI: 538002757.

Date/timePositionNaut miles runAvg speedWind from/ knotsBaromVisibWave heightAir tempDewpointWater temp
2014-Oct-23 10:33N 40°43' E 029°29'5 5.3
2014-Oct-23 09:33N 40°44' E 029°22'3 2.8
2014-Oct-23 08:30N 40°41' E 029°20'0 0.0
2014-Oct-23 07:24N 40°41' E 029°20'0 0.0
2014-Oct-23 06:30N 40°41' E 029°20'0 0.1
2014-Oct-23 05:30N 40°41' E 029°20'0 0.1
2014-Oct-23 04:30N 40°41' E 029°20'0 0.0
2014-Oct-23 03:12N 40°41' E 029°20'0 0.1
2014-Oct-23 02:30N 40°41' E 029°20'0 0.1
2014-Oct-23 01:24N 40°41' E 029°20'0 0.0
2014-Oct-23 00:18N 40°41' E 029°20'0 0.0
2014-Oct-22 23:30N 40°41' E 029°20'0 0.0
2014-Oct-22 22:18N 40°41' E 029°20'0 0.1
2014-Oct-22 21:30N 40°41' E 029°20'0 0.1
2014-Oct-22 20:30N 40°41' E 029°20'0 0.1
2014-Oct-22 19:30N 40°41' E 029°20'0 0.0
2014-Oct-22 18:30N 40°41' E 029°20'0 0.0
2014-Oct-22 15:24N 40°41' E 029°20'0 0.0
2014-Oct-22 14:18N 40°41' E 029°20'0 0.0
2014-Oct-22 13:30N 40°41' E 029°20'0 0.0
2014-Oct-22 12:30N 40°41' E 029°20'0 0.0
2014-Oct-22 11:24N 40°41' E 029°20'0 0.0
2014-Oct-22 10:30N 40°41' E 029°20'0 0.0
2014-Oct-22 09:29N 40°41' E 029°20'0 0.0
2014-Oct-22 07:30N 40°41' E 029°20'0 0.1
2014-Oct-22 06:27N 40°41' E 029°20'6 6.3
2014-Oct-22 05:33N 40°44' E 029°13'1413.6
2014-Oct-22 04:33N 40°49' E 028°57'1313.4
2014-Oct-22 03:33N 40°49' E 028°39'1514.0
2014-Oct-22 02:29N 40°47' E 028°19'9213.3
2014-Oct-21 19:32N 40°13' E 026°27'2310.4
2014-Oct-21 17:19N 39°59' E 026°03'1012.5
2014-Oct-21 16:32N 39°53' E 025°53'7 6.8
2014-Oct-21 15:33N 39°48' E 025°59'0 0.0
2014-Oct-21 14:33N 39°48' E 025°59'0 0.1
2014-Oct-21 13:33N 39°48' E 025°59'0 0.0
2014-Oct-21 12:33N 39°48' E 025°59'0 0.0
2014-Oct-21 11:33N 39°48' E 025°59'0 0.0
2014-Oct-21 10:33N 39°48' E 025°59'0 0.1
2014-Oct-21 09:33N 39°48' E 025°59'0 0.1
2014-Oct-21 08:33N 39°48' E 025°58'0 0.1
2014-Oct-21 07:30N 39°48' E 025°58'0 0.0
2014-Oct-21 06:33N 39°48' E 025°58'0 0.0
2014-Oct-21 05:33N 39°48' E 025°58'0 0.0
2014-Oct-21 04:30N 39°48' E 025°58'0 0.1
2014-Oct-21 03:18N 39°48' E 025°59'0 0.0
2014-Oct-21 02:30N 39°48' E 025°59'0 0.0
2014-Oct-21 01:33N 39°48' E 025°59'0 0.0
2014-Oct-21 00:24N 39°48' E 025°59'0 0.0
2014-Oct-20 23:12N 39°48' E 025°59'0 0.0
2014-Oct-20 19:24N 39°48' E 025°59'66 5.4
2014-Oct-20 07:14N 38°46' E 025°29'912.3
2014-Oct-20 06:31N 38°37' E 025°26'6712.8
2014-Oct-20 01:16N 37°33' E 025°49'912.3
2014-Oct-20 00:33N 37°25' E 025°54'1513.8
2014-Oct-19 23:26N 37°17' E 026°10'1413.4
2014-Oct-19 22:22N 37°10' E 026°26'3911.8
2014-Oct-19 19:06N 36°35' E 026°47'2211.8
2014-Oct-19 17:16N 36°16' E 026°60'27513.1
2014-Oct-18 20:12N 34°31' E 032°11'1113.1
2014-Oct-18 19:21N 34°27' E 032°24'1013.1
2014-Oct-18 18:33N 34°24' E 032°36'1313.0
2014-Oct-18 17:33N 34°20' E 032°51'1312.8
2014-Oct-18 16:32N 34°16' E 033°06'1612.3
2014-Oct-18 15:17N 34°11' E 033°24'1012.3
2014-Oct-18 14:30N 34°07' E 033°34'  

Dump ship's entire track history